Home   Weather   Dessau-Rosslau   Past weeks

Flag for Germany Past Weather in Dessau-Rosslau, Saxony-Anhalt, Germany — Yesterday and Last 2 Weeks

Now
37 °F

Clear.


Feels Like: 37 °F
Forecast: 35 / 53 °F
Wind: 1 mph from South

Location: Leipzig-Schkeuditz

Current Time: Apr 26, 2017 at 6:21:07 am

Latest Report: Apr 26, 2017 at 5:50 am


Visibility: 10 mi

Pressure: 29.83 "Hg

Humidity: 81%

Dew Point: 32 °F

Location of Dessau-RosslauLocation

Past Weather in Dessau-Rosslau — Graph

°F

Dessau-Rosslau Temperature Yesterday

Maximum temperature yesterday: 52 °F (at 5:50 pm)
Minimum temperature yesterday: 37 °F (at 11:50 pm)
Average temperature yesterday: 45 °F

High & Low Weather Summary for the Past Weeks

 TemperatureHumidityPressure
High59 °F (Apr 24, 4:50 pm)100% (Apr 12, 10:50 pm)30.60 "Hg (Apr 12, 10:50 pm)
Low28 °F (Apr 20, 3:50 am)37% (Apr 25, 6:50 pm)29.59 "Hg (Apr 25, 5:50 am)
Average44 °F72%30.07 "Hg
* Reported Apr 11 5:20 am — Apr 26 5:20 am, Dessau-Rosslau, Weather by CustomWeather, © 2017

Note: Actual official high and low records may vary slightly from our data, if they occured in-between our weather recording intervals... More about our weather records

Advertising

Dessau-Rosslau Weather History for the Previous 24 Hours

Scroll right to see more
 ConditionsComfort  
Time TempWeatherWind HumidityBarometerVisibility
5:20 am
Wed, Apr 26
37 °FClear.2 mph81%29.83 "Hg10 mi
4:50 am36 °FPassing clouds.5 mph87%29.80 "HgN/A
4:20 am36 °FClear.3 mph87%29.80 "Hg10 mi
3:50 am34 °FClear.6 mph93%29.80 "Hg10 mi
3:20 am36 °FClear.3 mph87%29.80 "Hg10 mi
2:50 am36 °FClear.5 mph87%29.80 "Hg10 mi
2:20 am37 °FClear.3 mph81%29.80 "Hg10 mi
1:50 am37 °FClear.5 mph81%29.80 "Hg10 mi
1:20 am36 °FClear.5 mph87%29.80 "Hg10 mi
12:50 am36 °FClear.5 mph87%29.80 "Hg10 mi
12:20 am36 °FClear.3 mph87%29.80 "Hg10 mi
11:50 pm
Tue, Apr 25
37 °FClear.3 mph81%29.80 "Hg10 mi
11:20 pm39 °FClear.7 mph75%29.80 "Hg10 mi
10:50 pm39 °FClear.6 mph75%29.80 "Hg10 mi
10:20 pm41 °FClear.8 mph76%29.80 "Hg10 mi
9:50 pm41 °FClear.8 mph76%29.80 "Hg10 mi
9:20 pm43 °FClear.7 mph71%29.77 "Hg10 mi
8:50 pm43 °FClear.8 mph71%29.77 "Hg10 mi
8:20 pm43 °FSunny.9 mph71%29.77 "Hg10 mi
7:50 pm45 °FSunny.14 mph66%29.74 "Hg10 mi
7:20 pm46 °FSunny.17 mph57%29.74 "Hg10 mi
6:50 pm50 °FSunny.14 mph37%29.74 "Hg10 mi
6:20 pm50 °FSunny.17 mph43%29.71 "Hg10 mi
5:50 pm52 °FSunny.20 mph41%29.71 "Hg10 mi
4:50 pm50 °FPartly sunny.18 mph54%29.71 "HgN/A
4:20 pm48 °FBroken clouds.16 mph62%29.71 "HgN/A
3:50 pm46 °FLight rain. Partly sunny.13 mph71%29.74 "HgN/A
3:20 pm45 °FMostly cloudy.14 mph76%29.74 "HgN/A
2:50 pm46 °FLight rain. Mostly cloudy.15 mph71%29.71 "HgN/A
2:20 pm46 °FMore clouds than sun.15 mph71%29.71 "HgN/A
1:50 pm46 °FMore clouds than sun.17 mph71%29.71 "HgN/A
1:20 pm45 °FMore clouds than sun.17 mph71%29.71 "HgN/A
12:50 pm45 °FLight rain. More clouds than sun.16 mph81%29.71 "HgN/A
12:20 pm45 °FLight rain. Partly sunny.8 mph81%29.71 "HgN/A
11:50 am45 °FLight rain. Partly sunny.7 mph76%29.68 "HgN/A
11:20 am45 °FLight rain. Partly sunny.13 mph76%29.68 "HgN/A
10:50 am45 °FPartly sunny.13 mph76%29.68 "HgN/A
10:20 am46 °FBroken clouds.15 mph76%29.65 "HgN/A
9:50 am45 °FBroken clouds.16 mph81%29.65 "HgN/A
9:20 am48 °FPartly sunny.13 mph66%29.62 "HgN/A
8:50 am48 °FSunny.13 mph66%29.59 "Hg10 mi
8:20 am46 °FSunny.10 mph71%29.59 "Hg10 mi
7:50 am46 °FSunny.10 mph66%29.59 "Hg10 mi
7:20 am45 °FSunny.9 mph71%29.59 "Hg10 mi
6:50 am43 °FSunny.7 mph76%29.59 "Hg10 mi
6:20 am43 °FSunny.9 mph76%29.59 "Hg10 mi
Weather by CustomWeather, © 2017

See weather overviewHow to use our weather pages